Voltar ao catálogo

STARLINK-36831

AtivoComunicaçõesVLEO
NORAD 67864·PAYLOAD·🇺🇸 United States

Lançado Feb 20, 2026 de Vandenberg Space Force Base

Loading…

Próximas Passagens (próximas 24 horas)

TLE

AtualizadoSource: CelesTrak SupGP

Época: Sep 15, 2026, 03:55 UTC

1 67864C 26034Q   26258.16368056  .00016450  00000+0  48594-3 0  2580
2 67864  53.1597  42.3325 0001183  90.4648 163.2365 15.34387585    12

Acompanhe STARLINK-36831 em tempo real com AllMySat

Download on the App Store